Regional Weather Roundup
Issued by NWS

Home | Current Version | Previous Version | Graphics & Text | Print | Product List | Glossary On
Versions: 1 2 3 4 5 6 7 8 9 10 11 12 13 14 15 16 17 18 19 20 21 22 23 24 25 26 27 28 29 30 31 32 33 34 35 36 37 38 39 40 41 42 43 44 45 46 47 48 49 50
000
ASUS45 KBOU 032207
RWRCO

WEATHER ROUNDUP FOR COLORADO
NATIONAL WEATHER SERVICE DENVER/BOULDER CO
400 PM MDT MON AUG 03 2015

NOTE: "FAIR" INDICATES FEW OR NO CLOUDS BELOW 12000 FEET WITH NO
SIGNIFICANT WEATHER AND/OR OBSTRUCTIONS TO VISIBILITY.

COZ001>005-013-030-031-032300-
...NORTHWEST COLORADO...

CITY           SKY/WX    TMP DP  RH WIND       PRES   REMARKS
CRAIG          LGT RAIN  67  57  70 W16G24    30.13R
HAYDEN         PTSUNNY   68  48  49 S8        30.14S THUNDER
MEEKER         CLOUDY    71  50  47 W7        30.13F
MOUNT WERNER   NOT AVBL
STEAMBOAT SPGS   N/A     74  45  35 SE6       30.14F
WALDEN         CLOUDY    70  37  30 SE8       30.25F
$$

COZ006>008-011-032300-
...WEST CENTRAL VALLEYS...

CITY           SKY/WX    TMP DP  RH WIND       PRES   REMARKS
GRAND JUNCTION MOSUNNY   84  48  28 NW17G25   30.04F
MONTROSE       MOSUNNY   85  46  25 W12       30.13F
EAGLE          MOSUNNY   70  48  46 W8        30.20F
RIFLE          PTSUNNY   77  57  50 E10       30.11F
DELTA          MOSUNNY   89  48  25 SW10G16   30.07F
NUCLA          NOT AVBL
$$

COZ017>023-064>068-032300-
...SOUTHWEST COLORADO...

CITY           SKY/WX    TMP DP  RH WIND       PRES   REMARKS
DURANGO        MOSUNNY   82  43  25 W13G22    30.19F
CORTEZ         SUNNY     83  48  29 W16G24    30.16F
PAGOSA SPRINGS PTSUNNY   75  42  30 SW10G20   30.26F THUNDER
TELLURIDE      NOT AVBL
WOLF CREEK PAS NOT AVBL
$$

COZ009-010-012-014-032>034-037-058>063-032300-
...CENTRAL COLORADO...

CITY           SKY/WX    TMP DP  RH WIND       PRES   REMARKS
ASPEN          PTSUNNY   64  50  60 N5        30.27R
BUENA VISTA    MOSUNNY   74  39  28 NW10      30.26F
COPPER MTN     PTSUNNY   59  41  51 W5        30.56F
BERTHOUD PASS  CLOUDY    43  32  65 MISG      30.62F
COTTONWOOD PAS MOSUNNY   64  37  36 W7G20     30.41S
GUNNISON       CLOUDY    72  46  40 N3        30.28F
KREMMLING      PTSUNNY   73  37  27 E8        30.23F
LEADVILLE      CLOUDY    64  40  41 VRB6      30.38F
MONARCH PASS   PTSUNNY   54  41  62 W23       30.66F
SALIDA         PTSUNNY   76  42  29 N6G16     30.29S
SUNLIGHT       TSTM      52  52 100 CALM      30.49F
WILKERSON PASS NOT AVBL
$$

COZ069>075-032300-
...SAN LUIS VALLEY/SANGRE DE CRISTO MOUNTAINS...

CITY           SKY/WX    TMP DP  RH WIND       PRES   REMARKS
ALAMOSA        LGT RAIN  63  54  72 N12       30.24S
LA VETA PASS   MOSUNNY   64  43  45 MISG      30.44S THUNDER
SAGUACHE       PTSUNNY   72  50  46 E5        30.27F
$$

COZ035-036-038>040-032300-
...NORTHERN COLORADO FRONT RANGE...

CITY           SKY/WX    TMP DP  RH WIND       PRES   REMARKS
DENVER INTL AP CLOUDY    83  44  25 S25G36    30.07F
DMNS CITY PARK   N/A     76  50  39 SE12G28   30.08R
AURORA         PTSUNNY   77  51  39 S20G29    30.10F
FRONT RANGE AP PTSUNNY   81  46  30 S18G26    30.11S
ERIE MUNI ARPT CLOUDY    85  37  18 S9        30.06S
BOULDER MUN AP CLOUDY    81  43  26 CALM      30.07S
CENTENNIAL     CLOUDY    75  51  43 S18G26    30.12S
BROOMFIELD     CLOUDY    81  39  22 S8G21     30.11S
FORT COLLINS   CLOUDY    84  43  23 SE8       30.04F
LONGMONT       CLOUDY    84  47  27 NW3       30.07F
$$

COZ041-046-047-076>085-087-088-032300-
...PIKES PEAK/PALMER DIVIDE AND SOUTHERN FOOTHILLS...

CITY           SKY/WX    TMP DP  RH WIND       PRES   REMARKS
COLO. SPRINGS  PTSUNNY   76  50  40 E15       30.16F
A. F. ACADEMY  CLOUDY    72  50  45 E9        30.18F
ELLICOTT       PTSUNNY  N/A N/A N/A E14G21    30.15F
FALCON         PTSUNNY   71  51  48 NE8       30.22F
FORT CARSON    NOT AVBL
LIMON          LGT RAIN  65  55  70 S10       30.15R
MONUMENT HILL  CLOUDY    72  46  40 SE10      30.22F
TRINIDAD       MOSUNNY   86  49  27 N9        30.07F
$$

COZ042>045-048>051-090-091-032300-
...NORTHEAST COLORADO...

CITY           SKY/WX    TMP DP  RH WIND       PRES   REMARKS
GREELEY ARPT   CLOUDY    81  45  28 E8        30.04F
AKRON          CLOUDY    84  49  29 SE16      30.05F
BURLINGTON     CLOUDY    84  56  38 SE13      30.03S
WRAY           CLOUDY    90  52  26 SE12G18   29.99S
STERLING       CLOUDY    88  50  27 S13       29.99S
HOLYOKE        CLOUDY    88  61  40 E10       30.00F
FORT MORGAN    CLOUDY    83  45  25 SE13G18   30.04F
$$

COZ086-089-092>099-032300-
...SOUTHEAST COLORADO...

CITY           SKY/WX    TMP DP  RH WIND       PRES   REMARKS
PUEBLO         MOSUNNY   88  49  25 S10G16    30.01F
LA JUNTA       CLOUDY    78  60  53 E16       30.00F
LAMAR          LGT RAIN  69  62  78 E15       30.00F
SPRINGFIELD      N/A     69  62  78 NE21G35   30.02S
$$



USA.gov is the U.S. government's official web portal to all federal, state and local government web resources and services.